| time (UTC) | temp F | wind direction | speed MPH | gust MPH | rain 1hr in | rain 24hr in | rain mn in | humidity % | barometer mb |
| 20260507180033 | 58 | 225 | 8.0 | 16.0 | 0.00 | 0.00 | 1.42 | 65 | 1003.0 |
| 20260507173950 | 58 | 293 | 5.0 | 20.0 | 0.00 | 0.00 | 1.42 | 65 | 1003.4 |
| 20260507173438 | 57 | 293 | 8.0 | 20.0 | 0.00 | 0.00 | 1.42 | 65 | 1003.0 |
| 20260507172927 | 57 | 315 | 8.0 | 20.0 | 0.00 | 0.00 | 1.42 | 65 | 1003.0 |
| 20260507172417 | 57 | 270 | 6.0 | 23.0 | 0.00 | 0.00 | 1.42 | 65 | 1002.9 |
| 20260507171907 | 57 | 315 | 8.0 | 23.0 | 0.00 | 0.00 | 1.42 | 65 | 1002.7 |
| 20260507171357 | 57 | 315 | 5.0 | 17.0 | 0.00 | 0.00 | 1.42 | 67 | 1002.7 |
| 20260507170847 | 57 | 315 | 8.0 | 18.0 | 0.00 | 0.00 | 1.42 | 66 | 1002.2 |
| 20260507165826 | 57 | 270 | 8.0 | 20.0 | 0.00 | 0.00 | 1.42 | 66 | 1001.8 |
| 20260507165316 | 57 | 338 | 9.0 | 20.0 | 0.00 | 0.00 | 1.42 | 66 | 1001.5 |
| 20260507164257 | 57 | 338 | 4.0 | 21.0 | 0.00 | 0.00 | 1.42 | 67 | 1001.2 |
| 20260507163237 | 57 | 293 | 5.0 | 14.0 | 0.00 | 0.00 | 1.42 | 69 | 1000.9 |
| 20260507162726 | 56 | 293 | 4.0 | 14.0 | 0.00 | 0.00 | 1.42 | 69 | 1001.0 |
| 20260507162216 | 56 | 270 | 7.0 | 16.0 | 0.00 | 0.00 | 1.42 | 69 | 1001.6 |
| 20260507161706 | 56 | 293 | 5.0 | 16.0 | 0.00 | 0.00 | 1.42 | 69 | 1002.2 |
| 20260507161156 | 56 | 293 | 4.0 | 16.0 | 0.00 | 0.00 | 1.42 | 69 | 1002.4 |
| 20260507160646 | 56 | 248 | 5.0 | 17.0 | 0.00 | 0.00 | 1.42 | 69 | 1002.2 |
| 20260507160136 | 56 | 270 | 10.0 | 20.0 | 0.00 | 0.00 | 1.42 | 68 | 1002.8 |
| 20260507155626 | 56 | 315 | 8.0 | 20.0 | 0.00 | 0.00 | 1.42 | 69 | 1002.9 |
| 20260507155115 | 56 | 293 | 8.0 | 15.0 | 0.00 | 0.00 | 1.42 | 69 | 1002.8 |
| 20260507154605 | 56 | 293 | 7.0 | 21.0 | 0.00 | 0.00 | 1.42 | 69 | 1002.6 |
| 20260507154055 | 56 | 270 | 8.0 | 21.0 | 0.00 | 0.00 | 1.42 | 70 | 1002.5 |
| 20260507153545 | 56 | 248 | 9.0 | 17.0 | 0.00 | 0.00 | 1.42 | 70 | 1002.6 |
| 20260507153035 | 56 | 293 | 5.0 | 20.0 | 0.00 | 0.00 | 1.42 | 70 | 1002.4 |
| 20260507152525 | 56 | 293 | 8.0 | 20.0 | 0.00 | 0.00 | 1.42 | 69 | 1002.1 |
| 20260507151505 | 56 | 248 | 6.0 | 14.0 | 0.00 | 0.00 | 1.42 | 71 | 1001.8 |
| 20260507150954 | 57 | 270 | 7.0 | 15.0 | 0.00 | 0.00 | 1.42 | 72 | 1001.8 |
| 20260507145934 | 57 | 270 | 8.0 | 17.0 | 0.00 | 0.00 | 1.42 | 72 | 1001.8 |
| 20260507145424 | 56 | 270 | 8.0 | 16.0 | 0.00 | 0.00 | 1.42 | 72 | 1001.5 |
| 20260507144404 | 57 | 248 | 6.0 | 18.0 | 0.00 | 0.00 | 1.42 | 73 | 1001.9 |
| 20260507143853 | 57 | 270 | 5.0 | 15.0 | 0.00 | 0.00 | 1.42 | 73 | 1002.1 |
| 20260507143345 | 57 | 293 | 8.0 | 15.0 | 0.00 | 0.00 | 1.42 | 72 | 1001.9 |
| 20260507142837 | 57 | 293 | 2.0 | 15.0 | 0.00 | 0.00 | 1.42 | 73 | 1001.9 |
| 20260507141813 | 58 | 248 | 5.0 | 13.0 | 0.00 | 0.00 | 1.42 | 72 | 1002.3 |
| 20260507141304 | 58 | 225 | 4.0 | 13.0 | 0.00 | 0.00 | 1.42 | 73 | 1002.1 |
| 20260507140754 | 57 | 270 | 4.0 | 13.0 | 0.00 | 0.00 | 1.42 | 74 | 1002.4 |
| 20260507140243 | 57 | 293 | 5.0 | 13.0 | 0.00 | 0.00 | 1.42 | 74 | 1002.6 |
| 20260507135746 | 57 | 270 | 3.0 | 15.0 | 0.00 | 0.00 | 1.42 | 73 | 1002.7 |
| 20260507135224 | 57 | 270 | 9.0 | 18.0 | 0.00 | 0.00 | 1.42 | 72 | 1002.6 |
| 20260507134712 | 57 | 225 | 10.0 | 21.0 | 0.00 | 0.00 | 1.42 | 72 | 1003.0 |
| 20260507133652 | 57 | 270 | 8.0 | 16.0 | 0.00 | 0.00 | 1.42 | 75 | 1003.0 |
| 20260507133142 | 58 | 135 | 4.0 | 14.0 | 0.00 | 0.00 | 1.42 | 76 | 1002.6 |
| 20260507132633 | 58 | 248 | 3.0 | 15.0 | 0.00 | 0.00 | 1.42 | 76 | 1002.4 |
| 20260507132122 | 58 | 270 | 5.0 | 15.0 | 0.00 | 0.00 | 1.42 | 76 | 1002.3 |
| 20260507131102 | 58 | 225 | 8.0 | 13.0 | 0.00 | 0.00 | 1.42 | 75 | 1002.0 |
| 20260507130605 | 59 | 248 | 8.0 | 13.0 | 0.00 | 0.00 | 1.42 | 75 | 1001.4 |
| 20260507125531 | 59 | 248 | 8.0 | 15.0 | 0.00 | 0.00 | 1.42 | 73 | 1001.7 |
| 20260507125021 | 59 | 248 | 5.0 | 11.0 | 0.00 | 0.00 | 1.42 | 77 | 1001.8 |
| 20260507124511 | 59 | 248 | 2.0 | 8.0 | 0.00 | 0.00 | 1.42 | 77 | 1001.6 |
| 20260507124001 | 59 | 248 | 2.0 | 9.0 | 0.00 | 0.00 | 1.42 | 77 | 1001.9 |
| 20260507123452 | 59 | 270 | 2.0 | 11.0 | 0.00 | 0.00 | 1.42 | 77 | 1001.8 |
| 20260507122941 | 59 | 225 | 5.0 | 11.0 | 0.00 | 0.00 | 1.42 | 76 | 1001.5 |
| 20260507122430 | 58 | 248 | 2.0 | 11.0 | 0.00 | 0.00 | 1.42 | 78 | 1002.0 |
| 20260507121920 | 58 | 270 | 2.0 | 20.0 | 0.00 | 0.00 | 1.42 | 78 | 1002.4 |
| 20260507121410 | 58 | 293 | 6.0 | 20.0 | 0.00 | 0.00 | 1.42 | 78 | 1001.3 |
| 20260507120900 | 58 | 248 | 6.0 | 14.0 | 0.00 | 0.00 | 1.42 | 77 | 1000.3 |
| 20260507115840 | 58 | 225 | 7.0 | 17.0 | 0.00 | 0.00 | 1.42 | 76 | 1000.1 |
| 20260507115330 | 59 | 248 | 9.0 | 21.0 | 0.00 | 0.00 | 1.42 | 76 | 1000.8 |
| 20260507114820 | 59 | 248 | 10.0 | 21.0 | 0.00 | 0.00 | 1.42 | 76 | 1000.9 |
| 20260507114310 | 59 | 293 | 10.0 | 23.0 | 0.00 | 0.00 | 1.42 | 76 | 1000.6 |
| 20260507113759 | 58 | 270 | 7.0 | 23.0 | 0.00 | 0.00 | 1.42 | 76 | 1000.3 |
| 20260507113249 | 58 | 293 | 11.0 | 22.0 | 0.00 | 0.00 | 1.42 | 76 | 1000.4 |
| 20260507112739 | 58 | 225 | 9.0 | 25.0 | 0.00 | 0.00 | 1.42 | 77 | 1000.0 |
| 20260507111719 | 59 | 248 | 12.0 | 31.0 | 0.00 | 0.00 | 1.42 | 79 | 999.2 |
| 20260507110700 | 59 | 293 | 11.0 | 24.0 | 0.00 | 0.00 | 1.42 | 81 | 1000.8 |
| 20260507105639 | 59 | 248 | 8.0 | 15.0 | 0.00 | 0.00 | 1.42 | 83 | 1000.8 |
| 20260507105129 | 59 | 248 | 8.0 | 15.0 | 0.00 | 0.00 | 1.42 | 83 | 1000.9 |
| 20260507104621 | 59 | 270 | 8.0 | 23.0 | 0.00 | 0.00 | 1.42 | 84 | 1000.3 |
| 20260507104110 | 59 | 270 | 8.0 | 23.0 | 0.00 | 0.00 | 1.42 | 86 | 999.8 |
| 20260507103559 | 58 | 225 | 9.0 | 18.0 | 0.00 | 0.00 | 1.42 | 87 | 999.5 |
| 20260507103048 | 58 | 225 | 4.0 | 18.0 | 0.00 | 0.00 | 1.42 | 90 | 999.8 |
| 20260507102537 | 58 | 203 | 11.0 | 20.0 | 0.00 | 0.00 | 1.42 | 91 | 999.8 |
| 20260507101518 | 58 | 203 | 11.0 | 24.0 | 0.00 | 0.00 | 1.42 | 92 | 999.1 |
| 20260507101007 | 58 | 248 | 8.0 | 18.0 | 0.00 | 0.00 | 1.42 | 92 | 998.9 |
| 20260507100458 | 58 | 293 | 11.0 | 21.0 | 0.00 | 0.00 | 1.42 | 92 | 999.5 |
| 20260507095947 | 58 | 270 | 13.0 | 21.0 | 0.00 | 0.00 | 1.42 | 92 | 1000.2 |
| 20260507095437 | 58 | 338 | 7.0 | 20.0 | 0.00 | 0.00 | 1.42 | 92 | 1000.6 |
| 20260507094928 | 58 | 248 | 2.0 | 20.0 | 0.00 | 0.00 | 1.42 | 92 | 1001.2 |
| 20260507094414 | 58 | 248 | 8.0 | 21.0 | 0.00 | 0.00 | 1.42 | 92 | 1000.5 |
| 20260507093907 | 58 | 203 | 14.0 | 24.0 | 0.00 | 0.00 | 1.42 | 92 | 999.5 |
| 20260507093356 | 58 | 248 | 10.0 | 27.0 | 0.00 | 0.00 | 1.42 | 92 | 999.9 |
| 20260507092847 | 58 | 248 | 10.0 | 27.0 | 0.00 | 0.00 | 1.42 | 92 | 999.7 |
| 20260507092336 | 58 | 225 | 16.0 | 27.0 | 0.00 | 0.00 | 1.42 | 92 | 998.9 |
| 20260507091316 | 58 | 293 | 8.0 | 13.0 | 0.00 | 0.00 | 1.42 | 92 | 999.1 |
| 20260507090806 | 59 | 248 | 4.0 | 18.0 | 0.00 | 0.00 | 1.42 | 92 | 999.5 |
| 20260507090256 | 59 | 248 | 4.0 | 18.0 | 0.00 | 0.00 | 1.42 | 92 | 999.9 |
| 20260507085747 | 59 | 225 | 8.0 | 20.0 | 0.00 | 0.00 | 1.42 | 92 | 1000.5 |
| 20260507085236 | 59 | 225 | 4.0 | 20.0 | 0.00 | 0.00 | 1.42 | 92 | 1000.6 |
| 20260507084726 | 59 | 270 | 5.0 | 16.0 | 0.00 | 0.00 | 1.42 | 92 | 1000.6 |
| 20260507084216 | 59 | 248 | 0.0 | 16.0 | 0.00 | 0.00 | 1.42 | 92 | 1000.8 |
| 20260507083706 | 59 | 270 | 4.0 | 16.0 | 0.00 | 0.00 | 1.42 | 92 | 1000.4 |
| 20260507083158 | 59 | 293 | 8.0 | 13.0 | 0.00 | 0.00 | 1.42 | 92 | 1000.5 |
| 20260507082646 | 60 | 315 | 5.0 | 15.0 | 0.00 | 0.00 | 1.42 | 92 | 1000.6 |
| 20260507082135 | 60 | 248 | 3.0 | 15.0 | 0.00 | 0.00 | 1.42 | 92 | 1000.6 |
| 20260507081625 | 60 | 293 | 4.0 | 14.0 | 0.00 | 0.00 | 1.42 | 92 | 1000.5 |
| 20260507081115 | 60 | 248 | 0.0 | 7.0 | 0.00 | 0.00 | 1.42 | 92 | 1000.2 |
| 20260507080605 | 60 | 270 | 0.0 | 7.0 | 0.00 | 0.00 | 1.42 | 92 | 1000.2 |
| 20260507080107 | 60 | 270 | 0.0 | 2.0 | 0.00 | 0.00 | 1.42 | 92 | 1000.2 |
| 20260507075035 | 60 | 293 | 0.0 | 2.0 | 0.00 | 0.00 | 1.42 | 92 | 1000.4 |
| 20260507074525 | 60 | 293 | 0.0 | 0.0 | 0.00 | 0.00 | 1.42 | 92 | 1000.4 |
| 20260507074014 | 60 | 293 | 0.0 | 2.0 | 0.00 | 0.00 | 1.42 | 92 | 1000.7 |
| 20260507073504 | 60 | 315 | 0.0 | 2.0 | 0.00 | 0.00 | 1.42 | 92 | 1000.9 |
| 20260507072954 | 60 | 293 | 0.0 | 2.0 | 0.00 | 0.00 | 1.42 | 92 | 1001.4 |
| 20260507072445 | 60 | 293 | 0.0 | 0.0 | 0.00 | 0.00 | 1.42 | 92 | 1001.1 |
| 20260507071934 | 60 | 248 | 0.0 | 2.0 | 0.00 | 0.00 | 1.42 | 92 | 1000.9 |
| 20260507070914 | 61 | 270 | 0.0 | 0.0 | 0.00 | 0.00 | 1.42 | 92 | 1000.9 |
| 20260507070158 | 61 | 270 | 0.0 | 0.0 | 0.00 | 0.00 | 1.42 | 92 | 1000.6 |
| 20260507065752 | 61 | 293 | 0.0 | 2.0 | 0.00 | 1.42 | 1.42 | 92 | 1000.4 |
| 20260507065242 | 61 | 293 | 0.0 | 2.0 | 0.00 | 1.42 | 1.42 | 92 | 1000.3 |
| 20260507064733 | 61 | 315 | 0.0 | 2.0 | 0.00 | 1.42 | 1.42 | 92 | 1000.2 |
| 20260507064223 | 61 | 315 | 0.0 | 2.0 | 0.00 | 1.42 | 1.42 | 92 | 999.4 |
| 20260507063712 | 61 | 315 | 0.0 | 0.0 | 0.00 | 1.42 | 1.42 | 92 | 999.7 |
| 20260507063202 | 61 | 315 | 0.0 | 0.0 | 0.00 | 1.42 | 1.42 | 92 | 999.4 |
| 20260507062142 | 61 | 338 | 0.0 | 0.0 | 0.00 | 1.42 | 1.42 | 92 | 999.4 |
| 20260507061632 | 61 | 315 | 0.0 | 0.0 | 0.00 | 1.42 | 1.42 | 92 | 998.9 |
| 20260507061121 | 61 | 23 | 0.0 | 0.0 | 0.00 | 1.42 | 1.42 | 92 | 999.4 |
| 20260507060108 | 61 | 23 | 0.0 | 0.0 | 0.01 | 1.42 | 1.42 | 92 | 999.0 |
| 20260507055550 | 61 | 113 | 0.0 | 2.0 | 0.01 | 1.42 | 1.42 | 92 | 997.6 |
| 20260507055041 | 61 | 113 | 0.0 | 2.0 | 0.04 | 1.42 | 1.42 | 92 | 998.6 |
| 20260507054021 | 61 | 68 | 0.0 | 0.0 | 0.06 | 1.42 | 1.42 | 92 | 1000.5 |
| 20260507053511 | 61 | 68 | 0.0 | 0.0 | 0.08 | 1.42 | 1.42 | 92 | 1001.0 |
| 20260507052957 | 61 | 338 | 0.0 | 0.0 | 0.11 | 1.42 | 1.42 | 92 | 1001.2 |
| 20260507052450 | 61 | 68 | 0.0 | 0.0 | 0.15 | 1.42 | 1.42 | 92 | 1000.7 |
| 20260507051943 | 61 | 113 | 0.0 | 0.0 | 0.25 | 1.42 | 1.42 | 92 | 1000.7 |
| 20260507051430 | 61 | 135 | 0.0 | 0.0 | 0.30 | 1.42 | 1.42 | 92 | 1001.2 |
| 20260507050919 | 61 | 68 | 0.0 | 0.0 | 0.38 | 1.42 | 1.42 | 92 | 1001.3 |
| 20260507050411 | 61 | 68 | 0.0 | 0.0 | 0.43 | 1.41 | 1.42 | 92 | 1001.3 |
| 20260507045859 | 61 | 248 | 0.0 | 7.0 | 0.51 | 1.41 | 1.41 | 92 | 1001.7 |
| 20260507045350 | 61 | 315 | 0.0 | 18.0 | 0.60 | 1.39 | 1.39 | 92 | 1001.4 |
| 20260507044840 | 61 | 248 | 4.0 | 23.0 | 0.72 | 1.37 | 1.37 | 92 | 1001.2 |
| 20260507044330 | 61 | 225 | 15.0 | 23.0 | 0.90 | 1.36 | 1.36 | 92 | 1000.8 |
| 20260507043819 | 61 | 203 | 11.0 | 27.0 | 0.90 | 1.35 | 1.35 | 92 | 1000.5 |
| 20260507043309 | 61 | 225 | 15.0 | 31.0 | 0.99 | 1.33 | 1.33 | 92 | 999.8 |
| 20260507042759 | 61 | 203 | 23.0 | 31.0 | 1.11 | 1.30 | 1.30 | 92 | 998.8 |
| 20260507042253 | 62 | 225 | 23.0 | 31.0 | 1.22 | 1.22 | 1.22 | 92 | 999.0 |
| 20260507041739 | 62 | 225 | 19.0 | 25.0 | 1.15 | 1.15 | 1.16 | 92 | 998.5 |
| 20260507041228 | 64 | 180 | 19.0 | 24.0 | 1.10 | 1.10 | 1.10 | 92 | 999.0 |
| 20260507040719 | 65 | 203 | 14.0 | 16.0 | 1.04 | 1.04 | 1.04 | 92 | 1000.4 |
| 20260507040208 | 64 | 203 | 8.0 | 18.0 | 0.94 | 0.94 | 0.96 | 91 | 1001.0 |
| 20260507035658 | 64 | 248 | 2.0 | 18.0 | 0.86 | 0.86 | 0.87 | 91 | 1000.4 |
| 20260507035149 | 64 | 203 | 11.0 | 17.0 | 0.72 | 0.72 | 0.76 | 91 | 999.6 |
| 20260507034128 | 65 | 203 | 14.0 | 32.0 | 0.45 | 0.45 | 0.45 | 91 | 999.2 |
| 20260507033618 | 65 | 225 | 20.0 | 43.0 | 0.45 | 0.45 | 0.45 | 91 | 998.5 |
| 20260507033108 | 65 | 225 | 26.0 | 43.0 | 0.25 | 0.25 | 0.25 | 90 | 998.3 |
| 20260507032049 | 76 | 0 | 3.0 | 18.0 | 0.00 | 0.00 | 0.00 | 77 | 997.9 |
| 20260507031538 | 76 | 315 | 10.0 | 18.0 | 0.00 | 0.00 | 0.00 | 76 | 998.4 |
| 20260507031027 | 76 | 315 | 10.0 | 18.0 | 0.00 | 0.00 | 0.00 | 76 | 998.4 |
| 20260507030518 | 76 | 0 | 5.0 | 16.0 | 0.00 | 0.00 | 0.00 | 76 | 998.8 |
| 20260507030007 | 76 | 338 | 7.0 | 16.0 | 0.00 | 0.00 | 0.00 | 76 | 998.8 |
| 20260507025500 | 76 | 338 | 6.0 | 18.0 | 0.00 | 0.00 | 0.00 | 76 | 998.3 |
| 20260507024947 | 77 | 0 | 10.0 | 22.0 | 0.00 | 0.00 | 0.00 | 75 | 998.0 |
| 20260507024437 | 77 | 315 | 14.0 | 22.0 | 0.00 | 0.00 | 0.00 | 75 | 998.2 |
| 20260507023926 | 77 | 0 | 11.0 | 21.0 | 0.00 | 0.00 | 0.00 | 75 | 998.0 |
| 20260507023417 | 77 | 338 | 11.0 | 21.0 | 0.00 | 0.00 | 0.00 | 74 | 998.4 |
| 20260507022356 | 78 | 23 | 11.0 | 25.0 | 0.00 | 0.00 | 0.00 | 73 | 998.4 |
| 20260507021846 | 78 | 338 | 12.0 | 25.0 | 0.00 | 0.00 | 0.00 | 74 | 998.6 |
| 20260507021336 | 78 | 338 | 14.0 | 21.0 | 0.00 | 0.00 | 0.00 | 74 | 998.6 |
| 20260507020826 | 78 | 315 | 12.0 | 23.0 | 0.00 | 0.00 | 0.00 | 74 | 998.8 |
| 20260507020329 | 77 | 0 | 11.0 | 25.0 | 0.00 | 0.00 | 0.00 | 74 | 998.6 |
| 20260507015256 | 78 | 0 | 12.0 | 23.0 | 0.00 | 0.00 | 0.00 | 74 | 998.7 |
| 20260507014745 | 78 | 338 | 11.0 | 22.0 | 0.00 | 0.00 | 0.00 | 73 | 998.8 |
| 20260507013729 | 78 | 338 | 12.0 | 25.0 | 0.00 | 0.00 | 0.00 | 73 | 998.5 |
| 20260507012706 | 78 | 0 | 12.0 | 29.0 | 0.00 | 0.00 | 0.00 | 72 | 998.5 |
| 20260507012154 | 79 | 45 | 12.0 | 29.0 | 0.00 | 0.00 | 0.00 | 71 | 998.4 |
| 20260507011646 | 79 | 23 | 12.0 | 27.0 | 0.00 | 0.00 | 0.00 | 71 | 998.4 |
| 20260507011135 | 79 | 0 | 11.0 | 27.0 | 0.00 | 0.00 | 0.00 | 71 | 998.5 |
| 20260507010625 | 79 | 0 | 14.0 | 27.0 | 0.00 | 0.00 | 0.00 | 70 | 998.6 |
| 20260507010116 | 79 | 0 | 15.0 | 27.0 | 0.00 | 0.00 | 0.00 | 71 | 998.5 |
| 20260507005604 | 79 | 338 | 9.0 | 27.0 | 0.00 | 0.00 | 0.00 | 71 | 998.4 |
| 20260507005055 | 79 | 0 | 15.0 | 27.0 | 0.00 | 0.00 | 0.00 | 71 | 998.6 |
| 20260507004546 | 79 | 0 | 17.0 | 31.0 | 0.00 | 0.00 | 0.00 | 71 | 998.6 |
| 20260507004035 | 79 | 338 | 11.0 | 31.0 | 0.00 | 0.00 | 0.00 | 71 | 998.4 |
| 20260507003524 | 79 | 23 | 14.0 | 29.0 | 0.00 | 0.00 | 0.00 | 71 | 998.3 |
| 20260507003019 | 79 | 338 | 13.0 | 29.0 | 0.00 | 0.00 | 0.00 | 71 | 998.6 |
| 20260507002504 | 79 | 338 | 13.0 | 29.0 | 0.00 | 0.00 | 0.00 | 71 | 998.3 |
| 20260507001955 | 79 | 0 | 13.0 | 27.0 | 0.00 | 0.00 | 0.00 | 71 | 998.3 |
| 20260507001444 | 78 | 338 | 11.0 | 27.0 | 0.00 | 0.00 | 0.00 | 71 | 998.2 |
| 20260507000423 | 79 | 315 | 15.0 | 29.0 | 0.00 | 0.00 | 0.00 | 71 | 998.1 |
| 20260506235913 | 79 | 338 | 14.0 | 29.0 | 0.00 | 0.00 | 0.00 | 70 | 998.5 |
| 20260506234857 | 79 | 0 | 11.0 | 23.0 | 0.00 | 0.00 | 0.00 | 70 | 998.5 |
| 20260506234343 | 79 | 0 | 12.0 | 22.0 | 0.00 | 0.00 | 0.00 | 70 | 999.0 |
| 20260506233845 | 79 | 338 | 12.0 | 22.0 | 0.00 | 0.00 | 0.00 | 70 | 999.0 |
| 20260506233323 | 79 | 0 | 10.0 | 20.0 | 0.00 | 0.00 | 0.00 | 71 | 999.0 |
| 20260506232306 | 79 | 338 | 7.0 | 15.0 | 0.00 | 0.00 | 0.00 | 70 | 998.9 |
| 20260506231752 | 79 | 338 | 4.0 | 15.0 | 0.00 | 0.00 | 0.00 | 70 | 999.1 |
| 20260506231255 | 79 | 45 | 5.0 | 13.0 | 0.00 | 0.00 | 0.00 | 70 | 999.3 |
| 20260506230732 | 79 | 0 | 5.0 | 11.0 | 0.00 | 0.00 | 0.00 | 69 | 999.0 |
| 20260506230221 | 79 | 23 | 4.0 | 15.0 | 0.00 | 0.00 | 0.00 | 69 | 999.1 |
| 20260506225712 | 79 | 338 | 5.0 | 15.0 | 0.00 | 0.00 | 0.00 | 69 | 999.5 |
| 20260506225201 | 80 | 0 | 4.0 | 16.0 | 0.00 | 0.00 | 0.00 | 68 | 999.3 |
| 20260506224652 | 80 | 23 | 7.0 | 16.0 | 0.00 | 0.00 | 0.00 | 68 | 999.2 |
| 20260506224142 | 80 | 23 | 5.0 | 13.0 | 0.00 | 0.00 | 0.00 | 68 | 999.1 |
| 20260506223121 | 80 | 23 | 7.0 | 16.0 | 0.00 | 0.00 | 0.00 | 67 | 999.0 |
| 20260506222101 | 81 | 45 | 8.0 | 14.0 | 0.00 | 0.00 | 0.00 | 67 | 999.1 |
| 20260506221550 | 81 | 23 | 8.0 | 17.0 | 0.00 | 0.00 | 0.00 | 67 | 998.7 |
| 20260506221040 | 81 | 0 | 8.0 | 17.0 | 0.00 | 0.00 | 0.00 | 67 | 998.9 |
| 20260506220530 | 80 | 23 | 5.0 | 14.0 | 0.00 | 0.00 | 0.00 | 67 | 999.1 |
| 20260506220022 | 81 | 23 | 8.0 | 13.0 | 0.00 | 0.00 | 0.00 | 67 | 998.9 |
| 20260506215512 | 81 | 45 | 8.0 | 11.0 | 0.00 | 0.00 | 0.00 | 67 | 999.0 |
| 20260506215001 | 81 | 45 | 5.0 | 11.0 | 0.00 | 0.00 | 0.00 | 67 | 998.9 |
| 20260506214450 | 81 | 68 | 7.0 | 11.0 | 0.00 | 0.00 | 0.00 | 66 | 999.1 |
| 20260506213940 | 81 | 23 | 6.0 | 9.0 | 0.00 | 0.00 | 0.00 | 66 | 999.5 |
| 20260506213430 | 81 | 23 | 3.0 | 9.0 | 0.00 | 0.00 | 0.00 | 66 | 999.6 |
| 20260506212920 | 82 | 45 | 7.0 | 11.0 | 0.00 | 0.00 | 0.00 | 65 | 999.5 |
| 20260506211859 | 82 | 23 | 6.0 | 11.0 | 0.00 | 0.00 | 0.00 | 64 | 999.8 |
| 20260506211350 | 83 | 0 | 5.0 | 11.0 | 0.00 | 0.00 | 0.00 | 64 | 1000.0 |
| 20260506210839 | 83 | 68 | 6.0 | 11.0 | 0.00 | 0.00 | 0.00 | 63 | 999.9 |
| 20260506210329 | 83 | 23 | 5.0 | 13.0 | 0.00 | 0.00 | 0.00 | 63 | 1000.0 |
| 20260506205820 | 83 | 0 | 6.0 | 13.0 | 0.00 | 0.00 | 0.00 | 63 | 1000.0 |
| 20260506205309 | 84 | 68 | 6.0 | 11.0 | 0.00 | 0.00 | 0.00 | 63 | 1000.0 |
| 20260506204758 | 84 | 23 | 6.0 | 13.0 | 0.00 | 0.00 | 0.00 | 62 | 1000.1 |
| 20260506204249 | 84 | 23 | 6.0 | 13.0 | 0.00 | 0.00 | 0.00 | 62 | 1000.1 |
| 20260506203739 | 84 | 23 | 5.0 | 11.0 | 0.00 | 0.00 | 0.00 | 62 | 1000.3 |
| 20260506203228 | 84 | 315 | 6.0 | 14.0 | 0.00 | 0.00 | 0.00 | 62 | 1000.7 |
| 20260506202718 | 85 | 0 | 7.0 | 14.0 | 0.00 | 0.00 | 0.00 | 62 | 1000.7 |
| 20260506202208 | 85 | 23 | 8.0 | 14.0 | 0.00 | 0.00 | 0.00 | 62 | 1000.7 |
| 20260506201659 | 85 | 0 | 7.0 | 14.0 | 0.00 | 0.00 | 0.00 | 62 | 1000.7 |
| 20260506201149 | 85 | 45 | 7.0 | 16.0 | 0.00 | 0.00 | 0.00 | 62 | 1000.6 |
| 20260506200638 | 85 | 23 | 11.0 | 16.0 | 0.00 | 0.00 | 0.00 | 62 | 1000.3 |
| 20260506200128 | 85 | 68 | 9.0 | 15.0 | 0.00 | 0.00 | 0.00 | 62 | 1000.6 |
| 20260506195617 | 86 | 23 | 7.0 | 14.0 | 0.00 | 0.00 | 0.00 | 62 | 1000.5 |
| 20260506194557 | 86 | 23 | 9.0 | 16.0 | 0.00 | 0.00 | 0.00 | 62 | 1000.4 |
| 20260506194047 | 85 | 23 | 7.0 | 16.0 | 0.00 | 0.00 | 0.00 | 62 | 1000.2 |
| 20260506193538 | 85 | 23 | 9.0 | 18.0 | 0.00 | 0.00 | 0.00 | 62 | 1000.7 |
| 20260506193027 | 85 | 45 | 8.0 | 18.0 | 0.00 | 0.00 | 0.00 | 62 | 1000.7 |
| 20260506192518 | 85 | 45 | 8.0 | 16.0 | 0.00 | 0.00 | 0.00 | 62 | 1000.5 |
| 20260506192008 | 85 | 90 | 9.0 | 14.0 | 0.00 | 0.00 | 0.00 | 62 | 1000.7 |
| 20260506191458 | 86 | 45 | 6.0 | 18.0 | 0.00 | 0.00 | 0.00 | 61 | 1000.7 |
| 20260506190439 | 85 | 45 | 13.0 | 21.0 | 0.00 | 0.00 | 0.00 | 61 | 1000.9 |
| 20260506185927 | 85 | 23 | 5.0 | 20.0 | 0.00 | 0.00 | 0.00 | 61 | 1000.9 |
| 20260506184906 | 85 | 23 | 8.0 | 17.0 | 0.00 | 0.00 | 0.00 | 62 | 1001.3 |
| 20260506184356 | 86 | 23 | 7.0 | 22.0 | 0.00 | 0.00 | 0.00 | 62 | 1001.3 |
| 20260506183851 | 86 | 23 | 9.0 | 22.0 | 0.00 | 0.00 | 0.00 | 61 | 1001.3 |
| 20260506182826 | 85 | 338 | 10.0 | 18.0 | 0.00 | 0.00 | 0.00 | 61 | 1001.6 |
| 20260506182316 | 85 | 45 | 8.0 | 18.0 | 0.00 | 0.00 | 0.00 | 61 | 1001.8 |
| 20260506181808 | 85 | 23 | 10.0 | 18.0 | 0.00 | 0.00 | 0.00 | 61 | 1001.9 |
| 20260506180746 | 85 | 45 | 11.0 | 16.0 | 0.00 | 0.00 | 0.00 | 63 | 1001.9 |